When you browse on this site, cookies collect data to enhance your experience and personalize the content and advertising you see.
Visit our Privacy Policy to learn more. By continuing to use the site, you agree to this use of cookies and data.
  • In France
  • List of Countries
  • For 7 days
  • Water Temperature
  • Satellite Maps
  • Weather Map
  • Weather Widgets
  • user-avatar
    Login

    Hourly Weather Bulla Regia

    Today, 23 May, Thursday

    Time Temperature Precipitation Wind Pressure Humidity
    00:00 +14°C° 0 mm 1 mps 705 mmHg 75%
    01:00 +14°C° 0 mm 1 mps 705 mmHg 76%
    02:00 +14°C° 0 mm 1 mps 705 mmHg 77%
    03:00 +13°C° 0 mm 1 mps 705 mmHg 77%
    04:00 +13°C° 0 mm 1 mps 704 mmHg 77%
    05:00 +13°C° 0 mm 0 mps 705 mmHg 73%
    06:00 +14°C° 0 mm 0 mps 705 mmHg 69%
    07:00 +15°C° 0 mm 0 mps 705 mmHg 66%
    08:00 +17°C° 0 mm 0 mps 705 mmHg 58%
    09:00 +18°C° 0 mm 0 mps 706 mmHg 50%
    10:00 +20°C° 0 mm 0 mps 706 mmHg 42%
    11:00 +23°C° 0 mm 1 mps 706 mmHg 38%
    12:00 +24°C° 0 mm 1 mps 706 mmHg 33%
    13:00 +25°C° 0 mm 1 mps 706 mmHg 29%
    14:00 +25°C° 0 mm 2 mps 706 mmHg 29%
    15:00 +25°C° 0 mm 2 mps 706 mmHg 29%
    16:00 +26°C° 0 mm 3 mps 705 mmHg 29%
    17:00 +24°C° 0 mm 2 mps 705 mmHg 34%
    18:00 +23°C° 0 mm 2 mps 705 mmHg 39%
    19:00 +21°C° 0 mm 2 mps 704 mmHg 44%
    20:00 +20°C° 0 mm 2 mps 704 mmHg 44%
    21:00 +19°C° 0 mm 2 mps 705 mmHg 45%
    22:00 +19°C° 0 mm 2 mps 705 mmHg 45%
    23:00 +18°C° 0 mm 2 mps 705 mmHg 48%

    Tomorrow, 24 May, Friday

    Time Temperature Precipitation Wind Pressure Humidity
    00:00 +17°C° 0 mm 2 mps 704 mmHg 52%
    01:00 +18°C° 0 mm 1 mps 704 mmHg 55%
    02:00 +16°C° 0 mm 1 mps 703 mmHg 58%
    03:00 +16°C° 0 mm 1 mps 703 mmHg 61%
    04:00 +15°C° 0 mm 1 mps 702 mmHg 64%
    05:00 +16°C° 0 mm 1 mps 702 mmHg 64%
    06:00 +18°C° 0 mm 1 mps 702 mmHg 63%
    07:00 +18°C° 0 mm 1 mps 702 mmHg 62%
    08:00 +21°C° 0.1 mm 1 mps 703 mmHg 55%
    09:00 +23°C° 0.1 mm 2 mps 703 mmHg 48%
    10:00 +25°C° 0.1 mm 2 mps 703 mmHg 41%
    11:00 +27°C° 0 mm 2 mps 703 mmHg 38%
    12:00 +28°C° 0 mm 2 mps 703 mmHg 35%
    13:00 +30°C° 0 mm 2 mps 702 mmHg 32%
    14:00 +28°C° 2.8 mm 2 mps 702 mmHg 43%
    15:00 +25°C° 2.8 mm 2 mps 701 mmHg 54%
    16:00 +22°C° 2.8 mm 3 mps 700 mmHg 65%
    17:00 +21°C° 1.4 mm 2 mps 700 mmHg 71%
    18:00 +20°C° 1.4 mm 2 mps 700 mmHg 76%
    19:00 +19°C° 1.4 mm 2 mps 699 mmHg 82%
    20:00 +20°C° 0.1 mm 1 mps 700 mmHg 84%
    21:00 +20°C° 0.1 mm 1 mps 700 mmHg 85%
    22:00 +19°C° 0.1 mm 1 mps 700 mmHg 87%
    23:00 +19°C° 0.4 mm 1 mps 700 mmHg 88%

    Day after tomorrow, 25 May, Saturday

    Time Temperature Precipitation Wind Pressure Humidity
    00:00 +19°C° 0.4 mm 1 mps 700 mmHg 89%
    01:00 +17°C° 0.4 mm 0 mps 700 mmHg 89%
    02:00 +18°C° 0.2 mm 1 mps 699 mmHg 90%
    03:00 +18°C° 0.2 mm 1 mps 699 mmHg 90%
    04:00 +18°C° 0.2 mm 1 mps 698 mmHg 90%
    05:00 +18°C° 2 mm 1 mps 698 mmHg 90%
    06:00 +15°C° 2 mm 0 mps 698 mmHg 90%
    07:00 +15°C° 2 mm 0 mps 698 mmHg 90%
    08:00 +16°C° 2.7 mm 0 mps 698 mmHg 88%
    09:00 +16°C° 2.7 mm 0 mps 698 mmHg 86%
    10:00 +17°C° 2.7 mm 0 mps 699 mmHg 84%
    11:00 +19°C° 1 mm 1 mps 699 mmHg 82%
    12:00 +19°C° 1 mm 1 mps 699 mmHg 81%
    13:00 +19°C° 1 mm 1 mps 698 mmHg 80%
    14:00 +18°C° 1 mm 2 mps 698 mmHg 78%
    15:00 +19°C° 1 mm 3 mps 698 mmHg 76%
    16:00 +19°C° 1 mm 4 mps 698 mmHg 75%
    17:00 +18°C° 0.4 mm 4 mps 698 mmHg 78%
    18:00 +17°C° 0.4 mm 4 mps 698 mmHg 82%
    19:00 +15°C° 0.4 mm 4 mps 698 mmHg 85%
    20:00 +14°C° 0.6 mm 4 mps 698 mmHg 86%
    21:00 +14°C° 0.6 mm 3 mps 699 mmHg 86%
    22:00 +13°C° 0.6 mm 3 mps 699 mmHg 87%
    23:00 +13°C° 0 mm 3 mps 699 mmHg 88%

    26 May, Sunday

    Time Temperature Precipitation Wind Pressure Humidity
    00:00 +13°C° 0 mm 3 mps 699 mmHg 88%
    01:00 +12°C° 0 mm 3 mps 699 mmHg 89%
    02:00 +12°C° 0 mm 3 mps 698 mmHg 89%
    03:00 +12°C° 0 mm 3 mps 698 mmHg 90%
    04:00 +11°C° 0 mm 3 mps 698 mmHg 90%
    05:00 +12°C° 0 mm 3 mps 698 mmHg 86%
    06:00 +12°C° 0 mm 3 mps 698 mmHg 83%
    07:00 +12°C° 0 mm 3 mps 698 mmHg 79%
    08:00 +13°C° 0 mm 4 mps 698 mmHg 76%
    09:00 +14°C° 0 mm 5 mps 699 mmHg 73%
    10:00 +15°C° 0 mm 6 mps 699 mmHg 70%
    11:00 +16°C° 0 mm 7 mps 699 mmHg 66%
    12:00 +17°C° 0 mm 7 mps 699 mmHg 63%
    13:00 +18°C° 0 mm 7 mps 699 mmHg 59%
    14:00 +17°C° 0.2 mm 8 mps 699 mmHg 61%
    15:00 +17°C° 0.2 mm 8 mps 699 mmHg 64%
    16:00 +17°C° 0.2 mm 9 mps 698 mmHg 66%
    17:00 +16°C° 0.1 mm 9 mps 698 mmHg 70%
    18:00 +15°C° 0.1 mm 8 mps 698 mmHg 74%
    19:00 +13°C° 0.1 mm 8 mps 698 mmHg 78%
    20:00 +14°C° 0.1 mm 7 mps 699 mmHg 80%
    21:00 +12°C° 0.1 mm 7 mps 699 mmHg 82%
    22:00 +13°C° 0.1 mm 6 mps 699 mmHg 84%
    23:00 +13°C° 0.1 mm 6 mps 699 mmHg 83%

    27 May, Monday

    Time Temperature Precipitation Wind Pressure Humidity
    00:00 +11°C° 0.1 mm 6 mps 699 mmHg 83%
    01:00 +11°C° 0.1 mm 7 mps 699 mmHg 83%
    02:00 +11°C° 0.3 mm 7 mps 698 mmHg 84%
    03:00 +11°C° 0.3 mm 7 mps 698 mmHg 84%
    04:00 +11°C° 0.3 mm 7 mps 698 mmHg 85%
    05:00 +11°C° 0 mm 6 mps 698 mmHg 83%
    06:00 +13°C° 0 mm 5 mps 699 mmHg 82%
    07:00 +13°C° 0 mm 5 mps 699 mmHg 80%
    08:00 +13°C° 0.3 mm 4 mps 699 mmHg 82%
    09:00 +13°C° 0.3 mm 4 mps 699 mmHg 84%
    10:00 +13°C° 0.3 mm 4 mps 700 mmHg 85%
    11:00 +14°C° 0.1 mm 4 mps 700 mmHg 80%
    12:00 +15°C° 0.1 mm 5 mps 700 mmHg 74%
    13:00 +17°C° 0.1 mm 6 mps 700 mmHg 68%
    14:00 +17°C° 0.1 mm 7 mps 700 mmHg 64%
    15:00 +18°C° 0.1 mm 7 mps 700 mmHg 60%
    16:00 +18°C° 0.1 mm 8 mps 700 mmHg 56%
    17:00 +19°C° 0 mm 6 mps 700 mmHg 59%
    18:00 +17°C° 0 mm 5 mps 700 mmHg 62%
    19:00 +17°C° 0 mm 3 mps 700 mmHg 65%
    20:00 +16°C° 0 mm 3 mps 700 mmHg 67%
    21:00 +15°C° 0 mm 2 mps 701 mmHg 70%
    22:00 +14°C° 0 mm 2 mps 701 mmHg 72%
    23:00 +14°C° 0 mm 2 mps 701 mmHg 71%

    28 May, Tuesday

    Time Temperature Precipitation Wind Pressure Humidity
    00:00 +14°C° 0 mm 2 mps 700 mmHg 70%
    01:00 +13°C° 0 mm 2 mps 700 mmHg 69%
    02:00 +13°C° 0 mm 2 mps 700 mmHg 70%
    03:00 +13°C° 0 mm 2 mps 700 mmHg 70%
    04:00 +13°C° 0 mm 1 mps 700 mmHg 70%
    05:00 +14°C° 0 mm 2 mps 700 mmHg 68%
    06:00 +15°C° 0 mm 2 mps 700 mmHg 66%
    07:00 +17°C° 0 mm 2 mps 700 mmHg 64%
    08:00 +19°C° 0 mm 3 mps 700 mmHg 56%
    09:00 +21°C° 0 mm 4 mps 701 mmHg 49%
    10:00 +23°C° 0 mm 5 mps 701 mmHg 41%
    11:00 +26°C° 0 mm 5 mps 701 mmHg 37%
    12:00 +28°C° 0 mm 6 mps 701 mmHg 33%
    13:00 +29°C° 0 mm 6 mps 700 mmHg 29%
    14:00 +29°C° 0 mm 5 mps 700 mmHg 28%
    15:00 +30°C° 0 mm 5 mps 700 mmHg 27%
    16:00 +30°C° 0 mm 5 mps 700 mmHg 26%
    17:00 +29°C° 0 mm 5 mps 699 mmHg 30%
    18:00 +28°C° 0 mm 4 mps 699 mmHg 33%
    19:00 +26°C° 0 mm 4 mps 699 mmHg 36%
    20:00 +25°C° 0 mm 4 mps 699 mmHg 36%
    21:00 +24°C° 0 mm 3 mps 699 mmHg 36%
    22:00 +24°C° 0 mm 3 mps 700 mmHg 36%
    23:00 +22°C° 0.4 mm 3 mps 699 mmHg 41%
    Show more